www.pogodaiklimat.ru

Погода и климат >> Архив погоды >> Россия >> Пензенская область >> Белинский


ПОГОДА в Белинском

  • Прогноз погоды в Белинском
  • Монитор погоды в Белинском

АРХИВ ПОГОДЫ в Белинском

Время (UTC), дата Ветер
(напр.,м/с)
 
Видим.   Явления Облачность Т
(С)
Тd
(С)
f
(%)
Тe
(С)
Тes
(С)
Комфортность P
(гПа)
Po
(гПа)
Тmin
(С)
Tmax
(С)
R
(мм)
R24
(мм)
S
(см)
09 18.05 СЗ 4 20 км 1/0
[Cc]
+19.2 +1.6 31 +19 +30 1016.5 992.4
12 18.05 СЗ 4
{12}
20 км 4/4 1000 м
[Cu med, cong]
+21.4 +2.7 29 +21 +26 комфорт 1014.2 990.4
15 18.05 С 5 20 км 1/1 1000 м
[Cu med, cong]
+20.5 +2.1 29 +21 +22 комфорт 1013.0 989.1 +21.6
18 18.05 С 2 21 км 1/0
[Ci fib]
+14.9 +4.9 51 +15 +15 1013.9 989.6
21 18.05 С 3 21 км ясно +12.6 +1.0 45 +12 +12 1014.7 990.1
00 19.05 С 1 20 км ясно +6.6 +1.9 72 +6 +6 1015.2 990.1
03 19.05 З 1 20 км ясно +10.0 +2.8 61 +10 +12 1014.8 990.1 +4.9
06 19.05 СЗ 5-12
{12}
20 км 6/0
[Cc]
+16.9 +1.7 36 +16 +21 1013.4 989.3
09 19.05 С 5-10
{13}
20 км 6/6 1000 м
[Cu med, cong]
+17.9 +2.6 36 +18 +21 1013.6 989.5
12 19.05 С 6-10
{11}
20 км 6/6 1000 м
[Cu med, cong]
+18.6 +2.0 33 +18 +20 1013.4 989.4
15 19.05 С 5
{11}
20 км 4/4 1000 м
[Cu med, cong]
+17.2 -0.0 31 +17 +17 1014.6 990.4 +19.1
18 19.05 СВ 1
{10}
21 км ясно +12.3 +0.1 43 +13 +13 1016.6 992.0
21 19.05 штиль 0 21 км ясно +7.9 +0.5 59 +7 +7 1018.7 993.7
00 20.05 штиль 0 20 км ясно +4.6 -0.1 72 +4 +4 1020.4 995.0
03 20.05 В 1 20 км ясно +6.7 +0.6 65 +6 +8 1021.5 996.2 +3.4
06 20.05 С 3 20 км 3/0
[Ci fib]
+11.9 -1.6 39 +11 +19 1021.3 996.6
09 20.05 С 2 20 км 6/3 1000 м
[Cu hum Ci fib]
+14.5 -1.0 34 +14 +25 опасность
простуды
1021.2 996.6
12 20.05 С 4 20 км 6/3 600 м
[Cu hum Ci fib]
+16.5 -1.3 30 +16 +21 1020.0 995.6
15 20.05 С 4 20 км 6/0
[Ac inh Ci fib]
+16.9 -1.4 29 +17 +18 1019.2 994.9 +17.1
18 20.05 штиль 0 20 км 1/0
[Ci fib]
+9.5 +0.3 53 +9 +9 1021.0 996.0
21 20.05 штиль 0 20 км ясно +5.5 +2.0 78 +5 +5 1021.7 996.4
00 21.05 штиль 0 20 км ясно +3.7 +0.9 82 +3 +3 1022.5 997.0
03 21.05 штиль 0 20 км ясно +9.5 +1.5 57 +9 +11 1022.2 997.2 +2.5
06 21.05 С 3 20 км 6/0
[Ci fib]
+17.0 +1.9 36 +17 +24 1021.5 997.2
09 21.05 С 3 20 км 8/0
[Ci fib]
+19.2 -1.1 25 +19 +31 опасность
простуды
1020.9 996.8
12 21.05 СЗ 3
{12}
20 км 8/0
[Cs]
+20.9 -4.0 18 +21 +28 комфорт 1020.0 996.0
15 21.05 З 1 20 км 9/0
[Cs]
+20.1 -1.3 24 +21 +23 комфорт 1018.9 994.9 +21.1
18 21.05 штиль 0 20 км 6/0
[Ci fib]
+13.0 +3.3 52 +13 +13 1018.8 994.2
21 21.05 штиль 0 20 км 3/0
[Ci fib]
+12.8 +1.6 46 +13 +13 1018.7 994.1
00 22.05 Ю 1 18 км 8/0
[Ac trans Ci fib]
+11.4 +1.7 51 +12 +12 1018.0 993.3
03 22.05 Ю 1 20 км 8/0
[Ac trans Ci fib]
+11.8 +3.9 58 +12 +13 1017.0 992.3 +9.7
06 22.05 З 3 20 км 9/0
[Ac trans Ci fib]
+19.8 +5.6 39 +21 +27 комфорт 1015.8 991.9
09 22.05 З 3 20 км 8/0
[Ac trans Ci fib]
+23.1 +2.7 26 +23 +32 комфорт 1014.1 990.4
12 22.05 ЮЗ 3 20 км 9/3 1000 м
[Cu hum Ci fib]
+24.3 +2.5 24 +23 +29 комфорт 1012.2 988.7
15 22.05 З 2 20 км 9/4 600 м
[Cu med, cong Ci fib]
+23.1 +4.8 30 +23 +24 комфорт 1010.9 987.3 +24.7
18 22.05 штиль 0 20 км 4/0
[Ac cuf Ci fib]
+16.9 +5.1 46 +17 +17 1011.6 987.5
21 22.05 штиль 0 21 км ясно +14.1 +6.8 61 +14 +14 1011.3 987.0
00 23.05 штиль 0 20 км 4/0
[Ci fib]
+12.6 +5.1 60 +12 +12 1010.1 985.7
03 23.05 Ю 1 20 км 6/0
[Ci fib]
+13.3 +6.3 63 +14 +15 1009.0 984.7 +12.1
06 23.05 ЮЗ 2 20 км 6/0
[Ci fib]
+21.3 +4.9 34 +22 +31 комфорт 1007.2 983.5
09 23.05 З 2 20 км 1/1 1000 м
[Cu med, cong]
+23.2 +4.1 29 +23 +38 комфорт 1005.6 982.2
12 23.05 З 2 20 км 3/3 1000 м
[Cu med, cong Ac trans]
+24.6 +4.9 28 +24 +32 комфорт 1003.2 979.9
15 23.05 З 1 20 км 6/3 600 м
[Cb cap Ac trans Ci fib]
+23.0 +5.6 32 +23 +25 комфорт 1002.7 979.3 +24.8
18 23.05 В 1 15 км 9/6 600 м
[Cb cap Ac lent]
+18.1 +11.2 64 +19 +19 1003.4 979.6
21 23.05 С 2 18 км 6/3 600 м
[Sc diur, vesp Ac As]
+16.0 +11.9 77 +16 +16 1003.5 979.6
00 24.05 С 2 20 км 6/0
[Cc]
+13.5 +11.9 90 +13 +13 1004.4 980.2
03 24.05 СВ 3 20 км 8/0
[As op]
+13.3 +12.1 92 +12 +12 1006.3 982.1 +12.6
06 24.05 СВ 4 20 км 8/8 900 м
[Sc]
+15.3 +10.6 74 +14 +16 1008.7 984.6
09 24.05 СВ 3 20 км 10/10 700 м
[Sc]
+13.6 +8.6 72 +13 +13 1011.5 987.2
12 24.05 СВ 4 20 км 8/8 600 м
[Cu med, cong]
+16.0 +6.0 51 +15 +17 1012.4 988.2
15 24.05 В 2 20 км ясно +16.0 +1.8 38 +16 +18 1013.0 988.8 +16.5
18 24.05 СВ 1 21 км ясно +11.4 +0.1 46 +12 +12 1014.8 990.1
21 24.05 В 2 20 км ясно +8.2 +0.7 59 +7 +7 1016.4 991.4
00 25.05 ЮВ 3 21 км ясно +8.4 +0.1 56 +6 +6 1016.8 991.8
03 25.05 ЮВ 3 20 км 8/6 1000 м
[Sc Ac trans]
+8.7 +1.1 59 +7 +7 1017.7 992.7 +7.6
06 25.05 Ю 3 20 км 3/0
[Cc]
+13.6 +2.7 48 +13 +21 1017.0 992.4

 

Местоположение метеостанции Белинский (Пензенская область, Россия): широта 52.97 долгота 43.40 высота над уровнем моря 206 м.

В архиве по умолчанию представлена погода в Белинском за последнюю неделю. Архивные данные за месяц целиком и за предыдущие месяцы, начиная с января 2011 года, Вы можете получить, выбрав интересующий диапазон дат из раскрывающегося списка и нажав кнопку "Ввод!".


*Определитесь, кто Вы:
робот инопланетянин человек

Внимание! Время в таблицах - всемирное. Для получения местного времени необходимо прибавить поправку, которая равна 3 ч.

Смотрите также архив погоды в соседних городах и на ближайших метеорологических станциях:

Погода в Пачелме (Пензенская область, Россия) (40 км)
Погода в Каменке (Пензенская область, Россия) (48 км)
Погода в Кирсанове (Тамбовская область, Россия) (57 км)
Погода в Земетчино (Пензенская область, Россия) (76 км)
Погода в Ртищево (Саратовская область, Россия) (84 км)
Погода в Колышлее (Пензенская область, Россия) (91 км)
Погода в Пензе (Пензенская область, Россия) (110 км)
Погода в Кондоле (Пензенская область, Россия) (113 км)
Погода в Моршанске (Тамбовская область, Россия) (119 км)
Погода в Инсаре (Мордовия, Россия) (119 км)

Пояснения к столбцам:

Ветер - указаны скорость ветра в м/с - средняя за 10 мин, порывы в срок и между сроками (в фигурных скобках) и направление, откуда дует ветер: С - северный, СВ - северо-восточный, В - восточный, ЮВ - юго-восточный, Ю - южный, ЮЗ - юго-западный, З - западный, СЗ - северо-западный.
Видимость - горизонтальная дальность видимости в метрах или километрах. При видимости от 1 до 10 км при отсутствии осадков обычно наблюдается дымка, при ухудшении видимости до 1 км и менее - туман. В сухую погоду видимость может ухудшаться дымом, пылью или мглою.
Явления - указаны атмосферные явления, наблюдавшиеся в срок или в последний час перед сроком; фигурными скобками обозначены явления, наблюдавшиеся между сроками (за 1-3 часа до срока); квадратными скобками обозначены град или гололедные отложения с указанием их диаметра в мм.
Облачность - указаны через наклонную черту общая и нижняя облачность в баллах и высота нижней границы облаков в метрах; квадратными скобками обозначены формы облаков: Ci - перистые, Cs - перисто-слоистые, Cc - перисто-кучевые, Ac - высококучевые, As - высокослоистые, Sc - слоисто-кучевые, Ns - слоисто-дождевые, Cu - кучевые, Cb - кучево-дождевые. Подробнее классификацию облаков см. в Атласе облаков (PDF).
T - Температура воздуха - температура, измеренная на высоте 2 м над землей.
Td - Температура точки росы - температура, при понижении до которой содержащийся в воздухе водяной пар достигнет насыщения.
f - Относительная влажность воздуха - влажноcть воздуха, измеренная на высоте 2 м над землей.
Te - Эффективная температура - температура, которую ощущает одетый по сезону человек в тени. Характеристика душности погоды. При расчете учитывается влияние влажности воздуха и скорости ветра на теплоощущения человека.
Tes - Эффективная температура на солнце - температура, которую ощущает человек, с поправкой на солнечный нагрев. Характеристика знойности погоды. Зависит от высоты солнца над горизонтом, облачности и скорости ветра. Ночью, в пасмурную погоду, а также при ветре 12 м/с и более поправка равна нулю.
P - Атмосферное давление - приведенное к уровню моря атмосферное давление.
Po - Атмосферное давление - измеренное на уровне метеостанции атмосферное давление.
Tmin - Минимальная температура - минимум температуры воздуха на высоте 2 м над землей.
Tmax - Максимальная температура - максимум температуры воздуха на высоте 2 м над землей.
R - Количество осадков - Количество выпавших осадков за период времени, мм. При наведении курсора мыши на число - период времени, за который выпало указанное количество осадков.
R24 - Количество осадков - Количество выпавших осадков за 24 часа, мм.
S - Снежный покров - Высота снежного покрова, см. При наведении курсора мыши на число - состояние снежного покрова и степень покрытия местности в баллах.